GSAT0220 (GALILEO 24)

Last updated on Oct. 24, 2020, 5:54 a.m. UTC

1 43567U 18060D   20297.70626746 -.00000094  00000-0  00000-0 0  9992
2 43567  56.8911  37.5427 0003683 249.4237 110.5427  1.70476033 14013
UTC
Height (km)
Latitude
Longitude
Inclination
Orbital Period
UTC large
Height (km)
Speed (km/s)
/
Latitude / Longitude
Inclination (degrees)
Orbital Period (minutes)
Azimuth
Elevation
Range (km)
Doppler Factor
iOS Compass Heading
iOS Angle

Next 30 passes for location: Hong Kong

Rise time Rise Azimuth (degrees) Set time Set Azimuth (degrees) Duration Max altitude (degrees)

No matching passes for this satellites